Time,TemperatureF,DewpointF,PressureIn,WindDirection,WindDirectionDegrees,WindSpeedMPH,WindSpeedGustMPH,Humidity,HourlyPrecipIn,Conditions,Clouds,dailyrainin,SoftwareType,DateUTC
2013-05-18 00:01:00,72.3,68.5,29.95,SE,135,0.0,-999.0,88,-99.99,,,0.00,Acu-Link.com,2013-05-18 04:01:00,
2013-05-18 00:16:00,71.8,68.4,29.95,SSE,157,0.0,-999.0,89,-99.99,,,0.00,Acu-Link.com,2013-05-18 04:16:00,
2013-05-18 00:31:00,71.1,68.7,29.95,SE,135,0.0,-999.0,92,-99.99,,,0.00,Acu-Link.com,2013-05-18 04:31:00,
2013-05-18 00:46:00,70.9,68.5,29.95,SE,135,1.7,-999.0,92,-99.99,,,0.00,Acu-Link.com,2013-05-18 04:46:00,
2013-05-18 01:02:00,70.2,68.4,29.95,NW,315,0.0,-999.0,94,-99.99,,,0.00,Acu-Link.com,2013-05-18 05:02:00,
2013-05-18 01:17:00,69.6,68.4,29.95,ESE,112,0.0,-999.0,96,-99.99,,,0.00,Acu-Link.com,2013-05-18 05:17:00,
2013-05-18 01:32:00,69.1,68.2,29.95,ESE,112,0.0,-999.0,97,-99.99,,,0.00,Acu-Link.com,2013-05-18 05:32:00,
2013-05-18 01:47:00,68.4,67.8,29.95,SW,225,0.0,-999.0,98,-99.99,,,0.00,Acu-Link.com,2013-05-18 05:47:00,
2013-05-18 02:02:00,68.0,67.4,29.95,ESE,112,0.0,-999.0,98,-99.99,,,0.00,Acu-Link.com,2013-05-18 06:02:00,
2013-05-18 02:18:00,67.6,67.0,29.95,NE,45,0.0,-999.0,98,-99.99,,,0.00,Acu-Link.com,2013-05-18 06:18:00,
2013-05-18 02:33:00,67.1,66.5,29.95,ESE,112,0.0,-999.0,98,-99.99,,,0.00,Acu-Link.com,2013-05-18 06:33:00,
2013-05-18 02:48:00,66.9,66.3,29.94,ESE,112,0.0,-999.0,98,-99.99,,,0.00,Acu-Link.com,2013-05-18 06:48:00,
2013-05-18 03:04:00,66.4,65.8,29.94,SE,135,0.0,-999.0,98,-99.99,,,0.00,Acu-Link.com,2013-05-18 07:04:00,
2013-05-18 03:19:00,66.2,65.6,29.94,ESE,112,0.0,-999.0,98,-99.99,,,0.00,Acu-Link.com,2013-05-18 07:19:00,
2013-05-18 03:34:00,65.8,65.2,29.95,ESE,112,0.0,-999.0,98,-99.99,,,0.00,Acu-Link.com,2013-05-18 07:34:00,
2013-05-18 03:49:00,65.5,64.9,29.95,ESE,112,0.0,-999.0,98,-99.99,,,0.00,Acu-Link.com,2013-05-18 07:49:00,
2013-05-18 04:05:00,65.1,64.5,29.95,East,90,0.0,-999.0,98,-99.99,,,0.00,Acu-Link.com,2013-05-18 08:05:00,
2013-05-18 04:21:00,65.1,64.5,29.96,ESE,112,0.0,-999.0,98,-99.99,,,0.00,Acu-Link.com,2013-05-18 08:21:00,
2013-05-18 04:36:00,64.8,64.2,29.96,ESE,112,0.0,-999.0,98,-99.99,,,0.00,Acu-Link.com,2013-05-18 08:36:00,
2013-05-18 04:51:00,64.4,63.8,29.96,SSW,202,0.0,-999.0,98,-99.99,,,0.00,Acu-Link.com,2013-05-18 08:51:00,
2013-05-18 05:06:00,64.2,63.6,29.96,SSW,202,0.0,-999.0,98,-99.99,,,0.00,Acu-Link.com,2013-05-18 09:06:00,
2013-05-18 05:21:00,64.0,63.4,29.96,SSW,202,0.0,-999.0,98,-99.99,,,0.00,Acu-Link.com,2013-05-18 09:21:00,
2013-05-18 05:37:00,64.0,63.4,29.96,SSW,202,0.0,-999.0,98,-99.99,,,0.00,Acu-Link.com,2013-05-18 09:37:00,
2013-05-18 05:52:00,63.9,63.3,29.97,SSW,202,0.0,-999.0,98,-99.99,,,0.00,Acu-Link.com,2013-05-18 09:52:00,
2013-05-18 06:07:00,63.7,63.1,29.97,SSW,202,0.0,-999.0,98,-99.99,,,0.00,Acu-Link.com,2013-05-18 10:07:00,
2013-05-18 06:22:00,63.7,63.1,29.98,ESE,112,0.0,-999.0,98,-99.99,,,0.00,Acu-Link.com,2013-05-18 10:22:00,
2013-05-18 06:37:00,63.7,63.1,29.98,East,90,0.0,-999.0,98,-99.99,,,0.00,Acu-Link.com,2013-05-18 10:37:00,
2013-05-18 06:53:00,63.9,63.3,29.99,ESE,112,0.0,-999.0,98,-99.99,,,0.00,Acu-Link.com,2013-05-18 10:53:00,
2013-05-18 07:08:00,64.2,63.6,29.99,East,90,0.0,-999.0,98,-99.99,,,0.00,Acu-Link.com,2013-05-18 11:08:00,
2013-05-18 07:23:00,64.8,64.2,30.00,East,90,0.0,-999.0,98,-99.99,,,0.00,Acu-Link.com,2013-05-18 11:23:00,
2013-05-18 07:39:00,65.3,64.7,30.00,South,180,0.0,-999.0,98,-99.99,,,0.00,Acu-Link.com,2013-05-18 11:39:00,
2013-05-18 07:54:00,65.8,65.2,30.00,NE,45,0.0,-999.0,98,-99.99,,,0.00,Acu-Link.com,2013-05-18 11:54:00,
2013-05-18 08:09:00,66.4,65.8,30.01,ESE,112,0.0,-999.0,98,-99.99,,,0.00,Acu-Link.com,2013-05-18 12:09:00,
2013-05-18 08:25:00,66.9,66.3,30.01,SE,135,0.0,-999.0,98,-99.99,,,0.00,Acu-Link.com,2013-05-18 12:25:00,
2013-05-18 08:40:00,67.6,67.0,30.01,ESE,112,0.0,-999.0,98,-99.99,,,0.00,Acu-Link.com,2013-05-18 12:40:00,
2013-05-18 08:55:00,68.9,68.3,30.01,NW,315,2.2,-999.0,98,-99.99,,,0.00,Acu-Link.com,2013-05-18 12:55:00,
2013-05-18 09:10:00,70.7,70.1,30.02,ENE,67,0.0,-999.0,98,-99.99,,,0.00,Acu-Link.com,2013-05-18 13:10:00,
2013-05-18 09:26:00,71.8,70.3,30.01,WNW,292,1.7,-999.0,95,-99.99,,,0.00,Acu-Link.com,2013-05-18 13:26:00,
2013-05-18 09:41:00,74.1,71.6,30.02,ESE,112,0.0,-999.0,92,-99.99,,,0.00,Acu-Link.com,2013-05-18 13:41:00,
2013-05-18 09:56:00,74.8,71.7,30.02,ENE,67,0.0,-999.0,90,-99.99,,,0.00,Acu-Link.com,2013-05-18 13:56:00,
2013-05-18 10:12:00,75.7,72.2,30.02,West,270,2.7,-999.0,89,-99.99,,,0.00,Acu-Link.com,2013-05-18 14:12:00,
2013-05-18 10:27:00,77.2,73.0,30.01,North,0,0.0,-999.0,87,-99.99,,,0.00,Acu-Link.com,2013-05-18 14:27:00,
2013-05-18 10:42:00,77.0,72.1,30.02,ESE,112,0.0,-999.0,85,-99.99,,,0.00,Acu-Link.com,2013-05-18 14:42:00,
2013-05-18 10:58:00,78.4,72.4,30.02,ENE,67,1.7,-999.0,82,-99.99,,,0.00,Acu-Link.com,2013-05-18 14:58:00,
2013-05-18 11:13:00,80.6,73.5,30.02,ENE,67,1.7,-999.0,79,-99.99,,,0.00,Acu-Link.com,2013-05-18 15:13:00,
2013-05-18 11:28:00,80.1,72.2,30.02,WNW,292,1.1,-999.0,77,-99.99,,,0.00,Acu-Link.com,2013-05-18 15:28:00,
2013-05-18 11:43:00,82.6,72.6,30.02,ESE,112,0.0,-999.0,72,-99.99,,,0.00,Acu-Link.com,2013-05-18 15:43:00,
2013-05-18 11:59:00,81.0,71.5,30.02,WNW,292,0.0,-999.0,73,-99.99,,,0.00,Acu-Link.com,2013-05-18 15:59:00,
2013-05-18 12:14:00,79.0,71.9,30.03,West,270,2.2,-999.0,79,-99.99,,,0.00,Acu-Link.com,2013-05-18 16:14:00,
2013-05-18 12:29:00,76.1,71.9,30.02,West,270,0.0,-999.0,87,-99.99,,,0.00,Acu-Link.com,2013-05-18 16:29:00,
2013-05-18 12:45:00,73.9,72.4,30.01,West,270,0.0,-999.0,95,-99.99,,,0.00,Acu-Link.com,2013-05-18 16:45:00,
2013-05-18 13:00:00,72.5,71.9,30.01,WNW,292,0.0,-999.0,98,-99.99,,,0.02,Acu-Link.com,2013-05-18 17:00:00,
2013-05-18 13:15:00,71.8,71.2,30.02,WNW,292,0.0,-999.0,98,-99.99,,,0.04,Acu-Link.com,2013-05-18 17:15:00,
2013-05-18 13:31:00,71.8,71.2,30.02,West,270,0.0,-999.0,98,-99.99,,,0.05,Acu-Link.com,2013-05-18 17:31:00,
2013-05-18 13:46:00,71.8,71.2,30.01,WNW,292,0.0,-999.0,98,-99.99,,,0.06,Acu-Link.com,2013-05-18 17:46:00,
2013-05-18 14:01:00,72.3,71.7,30.01,WNW,292,0.0,-999.0,98,-99.99,,,0.06,Acu-Link.com,2013-05-18 18:01:00,
2013-05-18 14:17:00,72.5,71.9,30.00,ESE,112,0.0,-999.0,98,-99.99,,,0.06,Acu-Link.com,2013-05-18 18:17:00,
2013-05-18 14:32:00,73.4,72.8,30.00,West,270,0.0,-999.0,98,-99.99,,,0.06,Acu-Link.com,2013-05-18 18:32:00,
2013-05-18 14:47:00,72.9,72.3,29.99,NE,45,1.7,-999.0,98,-99.99,,,0.06,Acu-Link.com,2013-05-18 18:47:00,
2013-05-18 15:03:00,73.9,73.0,30.00,NE,45,1.1,-999.0,97,-99.99,,,0.06,Acu-Link.com,2013-05-18 19:03:00,
2013-05-18 15:18:00,75.2,73.3,30.00,East,90,2.2,-999.0,94,-99.99,,,0.06,Acu-Link.com,2013-05-18 19:18:00,
2013-05-18 15:33:00,75.4,73.9,30.00,NW,315,2.2,-999.0,95,-99.99,,,0.06,Acu-Link.com,2013-05-18 19:33:00,
2013-05-18 15:49:00,76.3,73.5,29.99,NE,45,1.7,-999.0,91,-99.99,,,0.06,Acu-Link.com,2013-05-18 19:49:00,
2013-05-18 16:04:00,76.5,73.7,29.98,South,180,0.0,-999.0,91,-99.99,,,0.06,Acu-Link.com,2013-05-18 20:04:00,
2013-05-18 16:19:00,78.1,74.2,29.99,NNE,22,0.0,-999.0,88,-99.99,,,0.06,Acu-Link.com,2013-05-18 20:19:00,
2013-05-18 16:34:00,77.5,73.3,29.98,NE,45,1.1,-999.0,87,-99.99,,,0.06,Acu-Link.com,2013-05-18 20:34:00,
2013-05-18 16:50:00,77.4,73.9,29.98,North,0,0.0,-999.0,89,-99.99,,,0.06,Acu-Link.com,2013-05-18 20:50:00,
2013-05-18 17:05:00,77.0,73.5,29.97,NE,45,0.0,-999.0,89,-99.99,,,0.06,Acu-Link.com,2013-05-18 21:05:00,
2013-05-18 17:20:00,76.6,73.4,29.97,NW,315,0.0,-999.0,90,-99.99,,,0.06,Acu-Link.com,2013-05-18 21:20:00,
2013-05-18 17:36:00,76.5,73.3,29.97,ENE,67,0.0,-999.0,90,-99.99,,,0.06,Acu-Link.com,2013-05-18 21:36:00,
2013-05-18 17:51:00,75.9,73.7,29.97,ESE,112,0.0,-999.0,93,-99.99,,,0.06,Acu-Link.com,2013-05-18 21:51:00,
2013-05-18 18:06:00,75.6,73.7,29.97,East,90,0.0,-999.0,94,-99.99,,,0.06,Acu-Link.com,2013-05-18 22:06:00,
2013-05-18 18:22:00,75.0,73.5,29.97,East,90,0.0,-999.0,95,-99.99,,,0.06,Acu-Link.com,2013-05-18 22:22:00,
2013-05-18 18:37:00,74.7,73.5,29.97,ENE,67,0.0,-999.0,96,-99.99,,,0.06,Acu-Link.com,2013-05-18 22:37:00,
2013-05-18 18:52:00,74.7,73.5,29.97,ENE,67,0.0,-999.0,96,-99.99,,,0.06,Acu-Link.com,2013-05-18 22:52:00,
2013-05-18 19:07:00,73.9,73.0,29.98,East,90,0.0,-999.0,97,-99.99,,,0.06,Acu-Link.com,2013-05-18 23:07:00,
2013-05-18 19:23:00,73.6,73.0,29.99,SE,135,0.0,-999.0,98,-99.99,,,0.06,Acu-Link.com,2013-05-18 23:23:00,
2013-05-18 19:38:00,73.0,72.4,29.99,South,180,1.1,-999.0,98,-99.99,,,0.06,Acu-Link.com,2013-05-18 23:38:00,
2013-05-18 19:53:00,72.5,71.9,29.99,WNW,292,0.0,-999.0,98,-99.99,,,0.06,Acu-Link.com,2013-05-18 23:53:00,
2013-05-18 20:09:00,72.1,71.5,30.00,WSW,247,1.7,-999.0,98,-99.99,,,0.06,Acu-Link.com,2013-05-19 00:09:00,
2013-05-18 20:24:00,71.4,70.8,30.00,ENE,67,1.1,-999.0,98,-99.99,,,0.06,Acu-Link.com,2013-05-19 00:24:00,
2013-05-18 20:39:00,71.1,70.5,29.99,ESE,112,1.1,-999.0,98,-99.99,,,0.06,Acu-Link.com,2013-05-19 00:39:00,
2013-05-18 20:55:00,70.9,70.3,29.99,East,90,0.0,-999.0,98,-99.99,,,0.06,Acu-Link.com,2013-05-19 00:55:00,
2013-05-18 21:10:00,70.5,69.9,30.00,WNW,292,0.0,-999.0,98,-99.99,,,0.06,Acu-Link.com,2013-05-19 01:10:00,
2013-05-18 21:25:00,70.2,69.6,30.01,West,270,0.0,-999.0,98,-99.99,,,0.06,Acu-Link.com,2013-05-19 01:25:00,
2013-05-18 21:40:00,70.2,69.6,30.02,East,90,1.1,-999.0,98,-99.99,,,0.06,Acu-Link.com,2013-05-19 01:40:00,
2013-05-18 21:56:00,68.7,67.8,30.03,WNW,292,0.0,-999.0,97,-99.99,,,0.06,Acu-Link.com,2013-05-19 01:56:00,
2013-05-18 22:11:00,66.4,65.8,30.05,WNW,292,0.0,-999.0,98,-99.99,,,0.19,Acu-Link.com,2013-05-19 02:11:00,
2013-05-18 22:26:00,65.7,65.1,30.03,WNW,292,0.0,-999.0,98,-99.99,,,0.44,Acu-Link.com,2013-05-19 02:26:00,
2013-05-18 22:42:00,65.3,64.7,30.02,East,90,0.0,-999.0,98,-99.99,,,0.45,Acu-Link.com,2013-05-19 02:42:00,
2013-05-18 22:57:00,65.3,64.7,30.02,ESE,112,0.0,-999.0,98,-99.99,,,0.46,Acu-Link.com,2013-05-19 02:57:00,
2013-05-18 23:12:00,65.1,64.5,30.01,ESE,112,0.0,-999.0,98,-99.99,,,0.49,Acu-Link.com,2013-05-19 03:12:00,
2013-05-18 23:28:00,64.9,64.3,30.01,NE,45,0.0,-999.0,98,-99.99,,,0.49,Acu-Link.com,2013-05-19 03:28:00,
2013-05-18 23:43:00,65.1,64.5,30.01,ESE,112,0.0,-999.0,98,-99.99,,,0.50,Acu-Link.com,2013-05-19 03:43:00,
2013-05-18 23:58:00,64.8,64.2,30.01,West,270,0.0,-999.0,98,-99.99,,,0.53,Acu-Link.com,2013-05-19 03:58:00,